TimeCST,TemperatureF,Dew PointF,Humidity,Sea Level PressureIn,VisibilityMPH,Wind Direction,Wind SpeedMPH,Gust SpeedMPH,PrecipitationIn,Events,Conditions,WindDirDegrees,DateUTC
12:56 AM,32.9,27.1,79,30.38,10.0,SSW,4.6,-,N/A,,Overcast,210,2013-02-09 06:56:00
1:56 AM,32.0,26.1,79,30.39,10.0,South,3.5,-,N/A,,Overcast,190,2013-02-09 07:56:00
2:56 AM,32.0,25.2,76,30.38,10.0,SSW,3.5,-,N/A,,Overcast,200,2013-02-09 08:56:00
3:56 AM,29.1,25.2,85,30.39,10.0,SW,4.6,-,N/A,,Mostly Cloudy,230,2013-02-09 09:56:00
4:56 AM,26.1,23.0,88,30.39,9.0,Calm,Calm,-,N/A,,Mostly Cloudy,0,2013-02-09 10:56:00
5:45 AM,24.8,23.0,93,30.36,10.0,SW,3.5,-,N/A,,Scattered Clouds,230,2013-02-09 11:45:00
5:56 AM,26.1,23.0,88,30.41,10.0,Calm,Calm,-,N/A,,Scattered Clouds,0,2013-02-09 11:56:00
6:08 AM,24.8,21.2,86,30.36,10.0,Calm,Calm,-,N/A,,Mostly Cloudy,0,2013-02-09 12:08:00
6:56 AM,24.1,22.1,92,30.43,9.0,Calm,Calm,-,N/A,,Scattered Clouds,0,2013-02-09 12:56:00
7:56 AM,32.9,27.1,79,30.42,10.0,SW,5.8,-,N/A,,Clear,230,2013-02-09 13:56:00
8:56 AM,34.9,27.1,73,30.43,10.0,WSW,6.9,-,N/A,,Clear,240,2013-02-09 14:56:00
9:56 AM,38.8,27.1,63,30.42,10.0,WSW,4.6,-,N/A,,Clear,250,2013-02-09 15:56:00
10:56 AM,41.9,26.1,53,30.40,10.0,WNW,6.9,-,N/A,,Clear,290,2013-02-09 16:56:00
11:56 AM,45.0,25.2,46,30.38,10.0,WNW,5.8,-,N/A,,Clear,300,2013-02-09 17:56:00
12:56 PM,48.9,27.1,43,30.35,10.0,South,5.8,-,N/A,,Clear,190,2013-02-09 18:56:00
1:56 PM,50.9,27.1,40,30.31,10.0,Variable,5.8,-,N/A,,Clear,0,2013-02-09 19:56:00
2:56 PM,52.9,24.1,33,30.31,10.0,Variable,6.9,-,N/A,,Clear,0,2013-02-09 20:56:00
3:56 PM,50.0,24.1,36,30.30,10.0,SSW,5.8,-,N/A,,Clear,200,2013-02-09 21:56:00
4:56 PM,45.9,26.1,46,30.30,10.0,SSW,5.8,-,N/A,,Clear,210,2013-02-09 22:56:00
5:56 PM,39.9,27.1,60,30.30,10.0,Calm,Calm,-,N/A,,Clear,0,2013-02-09 23:56:00
6:56 PM,39.9,25.2,56,30.29,10.0,Calm,Calm,-,N/A,,Clear,0,2013-02-10 00:56:00
7:56 PM,41.0,24.1,51,30.26,10.0,West,6.9,-,N/A,,Clear,280,2013-02-10 01:56:00
8:56 PM,41.0,25.2,53,30.25,10.0,Calm,Calm,-,N/A,,Clear,0,2013-02-10 02:56:00
9:56 PM,41.9,24.1,49,30.24,10.0,NNE,4.6,-,N/A,,Clear,20,2013-02-10 03:56:00
10:56 PM,36.9,25.2,63,30.24,10.0,Calm,Calm,-,N/A,,Clear,0,2013-02-10 04:56:00
11:56 PM,38.8,26.1,60,30.23,10.0,Calm,Calm,-,N/A,,Clear,0,2013-02-10 05:56:00